Wind_Speed
30 27 27 28 29 31 36 37 36 36 36 38 39 39 39 39 38 36 34 33 34 35 33 31 31 33 33 31 30 30 29 28 27 26 26 26 24 22 22 22 22 22 23 23 22 20 19 19 20 21 22 23 23 24 26 29 30 31 31 30 31 31 30 30 29 28 27 25 26 29 31 33 33 33 33 33 31 31 29 29 29 29 29 29 29 29 28
29 28 28 29 29 30 34 36 35 35 35 37 39 39 39 40 38 35 34 35 36 38 37 35 33 34 34 34 33 33 32 32 31 30 29 29 27 26 24 24 24 24 25 25 26 25 24 23 22 23 23 24 24 23 23 25 27 29 29 29 31 31 32 33 32 30 29 27 26 27 29 31 33 34 35 35 34 33 32 31 30 30 30 31 31 30 30
29 29 29 29 29 30 33 36 34 33 34 36 38 38 39 40 40 40 38 37 37 37 38 38 37 35 34 34 34 34 34 34 34 33 33 32 32 30 28 27 27 28 27 27 28 29 28 27 26 26 26 25 25 25 25 26 27 28 28 28 30 30 32 33 34 33 32 32 31 30 29 30 31 34 36 37 37 36 34 33 32 31 31 32 32 32 32
30 30 30 30 30 30 33 35 34 32 33 35 36 37 38 38 39 39 39 41 41 39 38 38 38 37 36 35 34 34 34 35 36 36 36 35 35 34 33 32 31 31 31 30 30 31 31 31 30 29 29 28 27 26 27 28 30 30 29 29 29 30 31 32 33 33 33 34 35 35 34 33 32 33 35 37 38 38 37 36 35 34 33 33 33 33 33
30 29 31 32 31 30 32 34 33 32 33 34 35 36 37 37 37 37 38 42 44 41 39 39 38 37 37 36 36 36 35 36 37 37 38 37 37 37 37 36 35 34 34 34 34 33 33 33 33 32 31 30 29 29 30 30 30 29 29 28 28 30 31 31 32 32 32 34 35 37 39 38 36 35 35 36 38 40 40 39 38 36 35 35 35 35 34
29 28 29 31 32 33 34 34 32 33 33 34 34 35 35 35 35 36 36 39 41 40 39 39 38 36 36 37 38 37 37 38 38 38 38 38 38 38 38 38 37 37 36 36 36 36 36 36 35 34 33 32 31 31 32 31 30 29 29 29 28 30 31 32 31 31 31 33 34 36 38 39 39 38 38 38 39 41 41 41 40 39 39 38 37 36 36
29 29 28 30 33 34 35 34 33 34 34 33 34 35 35 34 34 35 35 35 36 37 38 39 38 38 38 38 39 38 38 39 39 38 38 38 38 38 38 38 38 38 37 37 37 36 36 37 36 34 34 33 33 32 32 33 32 31 31 31 29 30 31 32 32 31 31 32 33 33 34 36 37 38 40 41 42 42 41 41 42 42 42 42 40 39 39
25 28 29 32 34 34 33 32 33 35 36 35 35 35 35 34 34 34 34 33 33 34 36 37 37 38 39 39 39 39 39 39 39 39 39 39 38 38 38 38 38 38 37 37 36 35 35 35 35 34 34 34 33 32 32 33 33 32 32 31 30 30 31 31 32 32 31 31 32 33 33 34 35 35 35 38 41 42 42 42 42 43 44 44 44 43 42
21 24 28 32 34 35 35 34 32 33 35 37 37 36 36 36 36 36 35 33 32 32 33 33 34 36 37 38 38 38 39 39 39 39 38 38 38 38 39 39 39 39 38 37 36 35 34 34 34 33 34 34 33 31 31 32 34 34 33 31 30 30 30 30 30 30 30 30 31 32 32 33 33 32 32 32 34 36 38 40 41 43 45 46 46 46 46
21 23 26 29 32 37 39 37 35 33 32 34 37 38 37 36 37 37 37 35 34 33 32 31 32 33 35 36 36 37 37 38 39 39 39 39 39 39 39 40 40 39 39 38 37 35 34 34 34 34 33 34 33 32 30 31 34 35 36 35 33 32 30 30 29 29 28 28 29 31 33 32 32 32 32 31 31 32 34 36 38 42 46 47 46 46 45
20 23 25 27 29 34 37 37 36 35 32 32 34 36 37 37 36 36 37 36 35 34 32 32 33 34 36 37 37 36 37 38 38 39 39 40 41 41 41 41 41 40 40 38 37 36 34 33 33 33 33 33 33 32 31 31 32 34 35 36 36 35 34 32 32 31 29 26 25 28 30 30 29 29 28 27 26 25 26 28 31 36 41 46 48 47 43
18 21 24 26 27 29 30 30 32 32 32 32 31 32 35 37 36 35 36 35 34 35 34 34 34 35 38 39 39 38 38 39 40 41 42 42 42 42 42 41 41 41 40 39 38 36 34 32 32 31 31 31 31 30 29 29 30 30 31 32 33 34 34 33 32 32 32 29 27 26 26 27 27 26 23 21 20 20 21 22 23 25 30 39 47 48 44
15 17 20 24 25 23 23 25 26 25 26 29 30 31 32 33 32 33 34 34 34 36 37 38 37 35 35 35 35 37 39 40 40 42 45 46 44 42 41 41 41 41 41 40 39 37 34 33 32 31 31 30 30 30 29 28 27 27 26 26 27 29 30 31 30 30 31 31 30 29 27 28 28 26 22 19 20 21 22 21 20 20 22 28 38 47 48
14 14 17 21 22 20 20 23 23 22 22 26 29 30 30 29 29 30 32 32 34 35 38 41 41 39 36 34 33 33 36 38 39 40 42 43 42 42 42 42 42 42 41 40 40 38 36 34 33 33 33 33 33 33 31 30 29 28 27 26 25 26 27 28 29 29 29 29 29 30 30 30 31 32 30 27 26 26 25 22 20 20 19 18 21 29 38
13 14 17 19 18 18 19 21 21 21 22 24 26 27 27 28 29 29 30 31 32 34 35 38 42 43 40 38 36 34 34 36 38 39 42 43 41 41 42 42 42 42 42 41 40 39 38 36 35 35 36 36 36 35 35 34 33 32 32 30 29 28 28 28 29 29 28 28 28 30 31 31 31 33 33 31 30 30 29 26 25 25 23 19 14 14 18
14 16 18 18 17 16 17 18 19 20 20 21 22 23 25 26 27 28 30 31 32 33 33 34 38 42 42 41 40 38 37 38 36 34 36 40 42 41 41 42 42 42 41 41 41 40 40 39 38 38 38 38 37 37 37 37 36 36 35 35 34 33 32 31 30 29 29 29 29 30 31 32 31 31 31 30 28 28 28 28 28 28 27 25 21 18 16
15 16 16 16 16 16 17 18 19 19 20 20 20 21 22 24 26 28 29 30 31 33 33 33 35 39 41 42 42 42 42 43 42 38 33 31 33 37 39 39 41 43 43 42 42 42 42 41 41 41 40 40 39 39 39 38 38 38 37 36 36 35 34 33 32 31 31 31 31 31 32 32 32 32 32 31 29 28 28 29 28 28 28 26 25 23 21
13 14 15 15 16 16 16 18 19 19 20 20 21 20 21 22 25 27 28 30 31 33 34 35 37 39 39 37 39 42 45 46 47 48 45 40 36 36 37 37 37 41 44 45 44 44 44 44 44 43 42 42 41 41 41 41 40 40 39 37 36 36 35 34 34 33 33 33 33 33 33 33 33 33 33 32 31 30 29 29 29 28 28 28 27 25 24
14 14 14 15 15 15 16 17 18 19 20 21 21 21 21 22 24 26 27 29 31 32 34 37 39 41 40 37 35 36 40 43 44 43 43 46 46 45 44 42 39 37 39 41 43 44 45 45 46 46 44 43 42 42 42 42 42 40 39 38 37 36 36 35 35 35 36 35 35 35 35 34 34 34 33 33 32 31 30 30 29 29 29 29 29 29 28
17 17 16 16 16 16 16 17 17 18 19 20 21 21 22 22 24 25 27 28 30 32 34 37 39 42 42 42 41 37 34 36 39 36 32 33 37 41 44 47 46 44 42 42 42 43 43 44 45 46 46 45 43 42 42 42 41 41 39 38 37 36 36 37 37 38 38 38 37 37 37 37 36 35 35 34 33 32 31 30 30 29 29 29 30 30 31
19 19 19 20 20 19 19 19 19 19 20 20 21 22 22 22 24 25 26 28 29 31 33 35 39 42 44 45 47 45 40 36 36 35 33 30 29 31 36 40 42 45 47 48 47 44 43 43 43 43 43 42 41 41 40 40 40 40 40 39 39 38 38 38 39 40 40 40 40 39 39 39 38 38 37 37 35 34 33 33 32 31 30 30 30 31 31
18 19 19 21 22 22 22 22 23 23 23 23 22 23 23 23 24 25 26 28 29 31 32 34 37 41 44 46 48 49 49 47 42 38 37 36 32 29 29 32 35 39 43 47 49 47 45 44 44 44 43 41 40 40 40 40 41 41 42 42 42 42 41 41 41 41 42 42 41 41 41 41 41 41 40 39 38 37 36 35 34 34 33 33 33 33 33
17 18 19 20 22 22 23 24 25 26 26 27 27 26 26 26 26 26 26 27 29 31 32 35 37 39 41 43 46 48 50 53 51 47 44 42 39 35 31 30 32 35 37 40 43 45 46 46 46 46 46 46 45 44 44 44 44 44 45 45 46 46 45 44 43 43 43 43 43 44 44 44 45 45 44 43 42 41 40 39 38 37 37 37 38 38 38
18 19 19 20 21 22 22 23 25 26 27 28 29 30 30 30 30 29 29 29 30 31 33 35 37 39 40 40 42 44 46 49 51 51 50 49 48 46 42 38 36 36 37 37 38 41 44 47 48 48 48 48 48 48 47 46 45 45 45 45 46 46 46 46 46 46 46 46 47 48 48 49 49 49 48 48 47 45 43 42 42 41 41 41 41 42 43
19 19 19 19 20 21 22 23 24 25 26 28 29 30 31 32 33 33 33 33 33 33 34 36 37 39 40 41 40 41 43 45 47 48 49 49 50 50 50 50 47 43 39 37 37 38 39 41 44 47 50 51 51 51 50 49 48 47 46 46 46 47 47 47 48 48 48 49 49 50 51 52 52 53 52 52 50 49 47 45 44 43 43 43 43 44 45
18 19 19 20 21 21 22 23 24 25 26 27 28 30 31 32 33 34 35 37 37 37 37 38 39 40 41 42 42 42 42 44 45 46 46 47 48 49 51 54 55 52 48 45 42 41 39 37 37 38 41 45 47 49 50 51 51 51 50 49 49 49 48 49 49 49 49 50 50 50 51 51 52 52 52 52 52 51 49 47 46 46 46 46 47 47 47
19 19 20 21 22 22 23 24 25 25 26 27 28 29 30 31 33 34 35 37 38 39 40 41 42 43 43 44 44 45 44 44 45 46 47 46 47 48 49 51 54 55 55 53 51 49 48 45 42 40 40 40 40 42 44 46 49 51 52 53 52 52 52 53 53 53 53 53 53 53 53 53 53 53 53 52 52 52 51 50 50 51 51 51 51 51 51
20 20 21 22 24 24 25 26 27 28 28 29 30 30 31 32 33 34 35 37 38 40 41 42 43 44 46 46 46 47 47 47 47 47 47 48 48 48 48 49 50 52 52 52 52 51 51 50 49 48 46 43 42 42 43 44 46 47 49 50 50 50 51 51 53 54 55 56 57 57 56 56 56 56 56 55 55 54 54 54 55 56 55 54 53 53 53
21 22 22 23 25 26 26 27 28 29 30 31 32 33 34 35 35 35 36 37 39 40 41 43 44 45 46 47 48 48 49 49 50 49 49 49 49 49 49 49 50 50 49 49 49 49 49 48 48 48 47 45 43 44 46 47 48 48 48 49 49 48 48 48 49 49 50 52 53 55 57 58 58 58 58 58 58 57 56 56 56 56 55 54 54 53 53
21 22 23 24 25 27 28 29 30 31 32 33 34 36 36 37 38 39 39 39 40 41 42 44 45 46 47 48 49 49 50 50 50 51 51 50 50 50 51 51 51 50 49 49 48 48 48 48 47 47 46 45 45 45 46 48 49 50 51 52 53 53 53 52 52 51 50 50 50 50 52 53 54 56 57 57 58 58 58 57 57 56 56 55 55 54 53
23 24 25 26 27 28 30 31 32 33 35 36 37 38 39 40 41 42 43 43 44 44 45 45 46 48 49 49 50 51 51 51 51 52 52 52 51 51 51 51 52 52 52 52 51 50 50 50 49 48 47 46 46 46 47 48 49 50 51 52 54 55 55 55 54 54 54 53 52 52 52 52 52 53 53 54 55 55 56 56 56 56 56 56 56 56 55
25 26 27 28 28 29 31 32 34 35 36 38 39 40 42 43 44 45 46 46 47 47 48 48 49 49 50 51 51 52 53 53 53 53 54 54 53 52 52 51 52 52 51 51 50 49 49 50 49 49 49 48 47 48 48 49 50 50 50 51 52 53 54 54 54 54 55 55 54 54 54 54 54 54 54 54 54 54 54 55 55 55 56 56 56 56 56
26 26 27 28 29 30 31 32 33 34 36 37 39 40 42 44 45 47 48 49 49 50 51 51 52 52 52 52 53 54 54 54 54 54 54 54 54 54 54 55 54 54 53 52 51 50 50 50 49 49 50 50 50 50 51 51 51 51 51 52 52 52 53 53 54 54 55 55 56 56 56 55 55 55 55 55 55 55 54 54 55 55 55 55 55 55 55
26 26 28 28 29 30 30 31 31 32 33 34 36 37 39 41 43 45 47 48 49 50 51 52 53 53 54 54 54 55 55 56 56 56 56 56 55 55 55 56 55 55 56 56 56 57 56 55 53 52 52 52 52 52 53 53 54 54 54 54 53 53 53 53 54 54 54 55 56 56 57 57 57 56 56 56 55 55 55 55 55 55 55 55 55 55 54
26 27 28 28 29 28 28 29 30 31 32 33 35 36 37 39 40 42 44 45 47 47 48 49 50 51 53 54 55 56 56 56 57 57 57 57 57 57 56 56 56 56 56 57 58 59 59 58 56 55 54 53 53 53 52 52 53 54 55 55 55 55 54 54 54 54 54 54 55 56 56 57 57 57 57 57 56 55 55 54 54 54 53 53 54 54 54
27 27 28 28 28 27 28 29 30 32 33 35 36 37 38 38 39 41 42 43 44 45 45 46 47 48 49 50 52 53 55 56 57 57 58 58 58 58 58 58 57 57 57 57 57 58 58 58 57 57 58 58 58 58 57 56 56 56 56 56 56 55 55 55 55 55 55 55 54 55 56 56 56 57 57 56 56 56 55 55 54 53 53 53 53 53 53
28 28 28 28 28 28 28 29 31 32 34 35 37 38 39 39 40 40 41 41 42 43 43 44 44 45 46 47 48 49 51 52 54 55 57 58 58 59 59 59 59 58 58 58 57 57 57 57 57 57 58 59 60 60 60 60 61 61 60 60 59 58 57 56 56 56 56 56 56 55 55 56 56 57 57 56 56 56 56 55 55 54 54 54 54 54 54
28 29 29 29 29 29 29 30 32 33 34 36 36 37 38 39 39 39 39 39 40 41 42 42 43 44 45 46 47 48 48 50 51 52 54 55 56 57 58 59 60 60 60 60 59 58 57 57 57 57 57 57 57 57 57 57 58 59 60 60 60 59 59 58 57 57 57 57 57 56 56 56 56 57 57 57 57 57 58 58 57 57 57 57 56 56 56
29 29 30 30 29 30 30 31 32 34 35 36 36 37 37 37 38 37 37 38 38 39 40 41 42 43 44 45 45 46 47 48 49 50 51 52 54 55 56 58 59 59 60 60 59 59 58 57 57 57 56 56 55 55 55 55 56 56 57 57 57 58 58 59 59 60 59 58 58 58 57 57 57 57 58 58 59 59 60 60 60 60 60 60 60 60 59
29 30 30 30 30 30 31 32 33 34 35 36 36 36 36 37 37 37 37 37 38 38 39 39 40 41 41 42 42 43 44 45 46 46 47 49 50 52 53 54 55 57 58 58 58 58 58 58 57 57 56 56 56 56 56 57 57 57 57 57 57 57 58 58 59 59 59 59 59 59 59 58 58 58 58 58 58 59 60 60 60 61 61 61 61 62 62
30 30 30 30 30 30 31 32 33 34 34 35 35 35 36 37 37 37 37 37 37 37 36 36 37 37 37 38 39 41 42 43 44 44 45 46 48 49 50 50 51 53 54 54 55 55 56 57 57 57 56 55 56 56 57 58 58 57 57 57 56 56 57 57 57 58 58 58 58 58 58 58 58 58 58 58 58 58 58 59 59 60 60 60 61 61 61
30 31 30 30 30 30 31 32 33 33 34 35 36 36 37 37 37 37 36 35 34 33 33 33 34 35 36 38 40 41 42 43 43 44 45 46 46 47 47 48 49 50 50 50 50 51 52 53 54 55 55 55 55 55 55 56 57 56 56 55 55 55 55 55 56 56 56 57 57 56 56 56 57 57 57 57 57 57 57 57 58 58 58 59 59 59 60
31 31 31 30 30 30 31 32 32 33 35 36 37 38 38 37 36 35 34 32 31 30 31 32 34 35 37 39 41 42 43 44 44 45 46 46 47 47 47 47 47 48 48 47 47 47 49 50 50 51 52 53 53 54 54 54 54 55 54 54 53 53 53 53 54 54 54 54 55 55 55 55 55 55 55 55 56 56 56 56 56 56 57 57 57 58 58
31 31 31 30 30 30 31 31 32 34 36 37 38 38 37 36 34 32 30 29 28 28 30 32 34 36 39 41 43 44 46 47 47 48 48 48 49 49 48 47 46 46 46 46 44 43 44 45 46 47 48 48 49 49 50 51 51 52 52 52 52 52 52 52 53 53 53 53 53 53 53 53 53 53 54 53 53 53 53 54 54 54 55 55 56 56 57
31 31 30 30 30 30 31 31 33 35 36 38 38 38 35 32 30 28 26 25 25 26 27 29 32 36 39 41 43 44 44 43 43 43 44 44 45 45 45 44 43 44 45 45 42 41 42 42 42 42 42 43 45 46 47 47 48 48 49 50 50 50 51 51 52 52 52 53 53 53 53 53 53 53 53 53 53 52 52 52 52 52 52 52 53 53 54
31 31 30 29 29 30 30 32 33 35 37 38 38 35 32 28 26 23 22 22 22 22 23 26 29 31 32 33 33 35 35 33 31 31 32 34 35 36 37 38 40 42 42 41 40 40 41 41 40 38 36 35 36 37 40 42 44 46 47 47 47 48 48 49 49 50 51 51 52 52 53 53 53 53 53 53 53 53 52 51 51 50 50 50 50 50 50
31 30 29 29 29 29 30 32 34 36 37 37 36 32 28 24 21 19 19 19 19 19 20 23 26 25 24 22 20 20 21 21 20 20 21 23 25 27 29 32 35 37 37 36 36 36 37 38 40 41 40 36 31 29 29 32 36 40 42 43 44 44 45 45 46 46 47 48 49 50 50 51 52 52 52 52 52 52 52 51 51 50 49 49 48 48 48
31 30 29 28 29 29 30 32 34 35 36 35 32 28 24 20 18 17 17 18 18 18 19 22 23 20 17 15 12 9 10 11 12 13 14 15 18 22 26 29 31 32 32 32 32 33 33 34 37 41 43 42 37 32 29 28 30 32 34 36 38 39 40 41 41 42 42 43 44 45 46 47 48 48 49 49 49 50 50 50 50 49 49 49 48 48 48
30 29 28 28 28 29 30 32 34 35 35 33 29 24 20 17 15 15 16 17 17 17 17 19 18 15 12 10 9 7 7 9 11 12 12 12 15 19 23 26 28 29 29 29 29 29 30 31 32 35 38 40 40 38 36 34 33 32 32 33 34 35 36 37 37 38 38 39 39 40 41 42 43 44 44 45 45 45 45 46 46 46 46 46 46 46 46
29 28 27 27 27 28 30 32 33 34 34 30 26 22 18 15 14 14 15 16 15 15 14 14 13 11 9 8 8 8 9 11 13 14 14 13 14 15 18 22 24 25 26 27 27 28 29 30 31 32 34 35 37 37 37 37 37 37 36 36 36 35 34 34 35 35 36 36 37 37 37 38 38 39 40 40 40 40 41 41 41 41 41 40 40 41 41
28 27 26 26 27 28 30 31 33 33 32 29 24 20 17 14 13 13 14 14 13 12 12 12 11 10 8 7 8 9 11 12 13 14 14 15 15 16 17 19 21 23 24 24 25 26 27 28 29 31 32 33 33 33 34 35 36 37 38 38 36 34 33 33 33 33 34 34 35 36 36 36 36 37 38 38 39 39 38 38 38 37 37 37 37 38 39
27 26 25 25 27 28 29 31 32 32 31 27 22 19 16 13 12 12 13 12 11 10 11 10 10 9 8 8 8 9 10 11 11 11 11 13 14 14 15 17 18 20 21 22 23 24 25 26 26 28 29 29 30 30 31 32 32 33 33 34 33 33 32 32 32 32 32 33 33 34 35 35 36 36 36 36 36 37 36 36 36 36 36 36 37 37 38
Wind_Direction
218 217 215 217 221 223 223 223 223 222 220 219 221 223 224 226 229 229 230 232 230 228 227 223 217 217 219 220 222 224 225 227 228 230 231 231 231 232 233 235 237 238 238 238 239 240 243 247 250 256 260 261 257 252 247 245 245 246 246 246 247 247 245 243 241 241 241 240 239 238 238 238 238 239 239 239 239 239 240 241 243 245 247 248 248 248 248
218 219 219 220 222 222 221 222 223 221 221 221 221 224 225 226 228 226 226 230 231 229 230 230 225 220 221 223 225 226 228 229 231 232 232 232 232 232 231 232 234 236 236 236 237 238 241 245 249 255 261 263 263 262 259 255 251 250 251 251 252 253 251 247 244 243 242 241 242 241 240 239 239 240 241 240 239 239 239 240 241 244 246 248 249 249 249
217 217 217 219 221 221 220 222 222 220 221 223 223 224 226 227 229 228 227 232 235 234 234 235 232 227 226 227 228 228 229 230 231 233 233 234 235 235 235 234 234 235 235 236 237 239 241 245 249 254 258 261 262 262 262 260 257 254 253 252 253 255 254 251 250 249 246 243 243 245 243 241 240 240 242 242 241 240 239 239 240 241 243 246 248 249 250
219 217 215 215 218 220 221 223 224 222 221 223 224 225 226 227 230 231 231 234 236 237 238 238 238 237 235 235 234 233 232 232 231 232 233 235 236 237 238 238 237 237 237 237 238 239 241 246 251 254 256 258 261 261 260 259 259 258 255 252 252 254 254 253 253 254 251 246 244 246 246 245 242 241 241 243 244 243 241 240 239 239 241 243 244 246 248
221 219 214 214 216 217 220 221 221 222 224 224 225 226 227 228 230 231 233 234 235 236 239 240 242 241 241 241 240 238 238 237 235 234 235 236 238 238 240 241 242 242 242 241 240 240 242 247 251 254 255 257 258 258 258 257 257 258 257 255 253 253 255 255 255 255 254 250 247 247 248 247 246 245 243 242 243 243 242 241 240 240 241 242 244 244 245
223 222 216 214 215 216 218 219 217 219 224 226 227 228 229 230 232 233 235 237 237 237 239 240 242 243 243 243 243 243 244 244 243 241 240 240 242 243 243 245 246 247 247 246 245 244 245 248 251 253 254 254 256 256 256 256 255 256 256 256 254 253 254 255 256 255 254 252 250 249 248 247 248 249 250 248 245 243 242 241 241 241 241 241 243 244 245
227 226 222 218 217 218 221 221 218 218 222 225 229 231 231 233 235 236 238 240 240 240 240 240 241 243 244 245 245 245 246 247 248 248 247 247 247 247 248 248 249 250 250 250 249 247 247 248 250 252 252 253 255 256 256 257 257 256 255 254 253 252 252 253 255 254 253 253 252 251 249 249 250 252 254 253 250 246 243 242 241 240 241 241 242 243 244
230 231 230 226 222 222 224 223 218 217 220 225 228 231 234 235 237 239 240 242 242 243 244 243 243 244 245 246 247 247 248 249 250 251 251 252 252 252 252 251 251 252 251 251 250 249 249 249 249 249 249 250 253 255 255 255 256 256 255 254 252 251 251 253 254 254 253 254 254 253 252 252 253 255 256 256 254 251 249 249 247 244 241 240 241 242 243
232 234 235 231 227 226 229 231 226 218 216 222 228 231 234 237 239 240 242 243 243 244 245 246 246 246 246 246 247 248 250 251 252 253 253 254 254 253 253 252 251 251 251 251 250 249 248 249 249 247 246 247 250 252 252 252 253 253 252 251 251 250 251 253 254 256 257 256 255 252 251 252 253 255 257 256 252 251 252 253 254 252 247 243 240 240 242
234 234 235 235 233 230 229 233 235 228 219 220 226 230 233 236 239 240 240 242 243 243 244 246 246 247 248 248 248 248 250 251 253 254 254 254 253 252 251 251 250 250 250 250 250 249 247 247 248 246 245 246 248 249 249 249 250 250 250 249 250 251 253 254 255 257 259 259 256 252 250 252 253 254 254 252 248 248 250 252 254 256 254 249 244 241 242
234 232 234 236 237 234 232 235 239 236 229 224 225 228 229 229 233 237 238 239 241 242 242 243 244 245 245 246 246 246 248 251 253 253 254 253 253 252 251 251 251 250 250 250 250 249 246 245 245 246 244 245 247 248 248 248 248 249 250 250 250 252 254 254 254 255 257 257 255 252 248 247 248 248 246 243 242 243 247 250 253 255 253 249 245 242 241
236 233 234 235 237 237 238 241 244 243 239 234 232 235 234 228 226 231 234 235 237 240 240 239 239 240 242 245 247 248 250 252 252 252 252 252 252 252 252 252 253 252 251 250 250 249 246 243 242 243 244 244 245 245 246 246 247 247 249 251 252 252 253 252 252 253 254 252 251 251 243 234 232 236 236 234 236 240 244 248 252 254 250 246 243 242 240
236 237 237 237 240 242 242 244 248 249 247 241 237 240 241 236 231 231 231 231 233 237 238 237 236 236 237 240 242 243 244 244 244 244 246 247 248 250 251 251 251 251 251 250 249 247 244 241 239 239 240 240 240 241 243 244 245 247 248 251 254 254 252 250 249 250 252 252 251 251 247 238 236 240 241 240 242 244 246 250 253 257 255 250 246 244 241
232 234 239 241 243 246 247 247 249 250 248 243 239 240 243 244 242 238 235 234 234 236 238 239 237 235 234 233 233 236 236 236 235 236 238 242 245 244 245 247 246 246 247 247 246 243 241 238 237 237 238 239 239 241 242 243 245 249 251 252 255 257 254 251 249 249 251 253 254 255 255 253 253 254 256 255 254 253 255 257 257 259 262 260 255 250 244
229 227 233 240 243 244 246 249 250 249 246 242 241 241 241 243 245 243 240 238 237 236 238 240 239 238 236 235 236 238 239 237 236 235 235 237 238 238 241 245 245 243 243 242 241 240 240 238 237 237 239 240 242 243 244 244 246 249 252 253 254 255 253 252 251 251 252 255 257 259 260 260 261 262 263 263 261 259 260 259 257 261 266 268 267 261 248
231 228 231 237 240 240 241 244 246 248 248 245 241 239 239 241 243 243 242 240 238 237 236 238 239 239 238 237 238 240 243 242 240 240 238 234 234 236 240 243 243 240 238 238 238 239 239 238 238 239 240 241 243 245 247 248 248 250 252 253 254 253 253 253 253 253 253 255 257 259 261 261 261 261 262 262 261 260 260 258 256 258 263 265 263 258 249
237 238 239 241 241 238 237 239 242 245 248 248 245 240 237 237 239 241 241 240 240 239 236 236 237 238 239 240 240 241 244 243 242 247 248 241 239 241 243 242 240 236 235 236 237 238 239 238 238 239 240 241 243 245 247 249 250 251 252 254 254 253 252 252 252 251 252 254 255 256 258 259 258 258 258 257 256 255 255 256 254 253 253 255 256 254 249
242 245 246 246 245 242 239 239 241 243 245 247 247 243 238 236 237 238 239 239 240 240 239 236 235 236 238 242 245 245 246 245 246 251 253 251 251 253 250 245 240 235 235 237 238 236 237 238 239 240 241 241 243 245 247 249 250 251 251 251 251 250 249 249 249 249 249 250 251 253 253 253 254 255 255 255 254 252 252 252 253 252 250 250 252 253 251
247 249 249 249 249 248 245 243 243 243 244 246 247 246 243 240 239 239 240 240 239 240 240 239 237 236 237 238 241 244 245 244 246 250 253 253 255 256 254 250 246 242 239 239 238 236 236 237 238 239 240 242 243 244 246 248 249 250 250 248 247 246 246 246 247 248 249 248 249 250 250 250 250 250 252 253 253 252 252 251 251 252 252 252 252 253 253
252 252 252 253 253 252 251 250 247 246 245 245 246 247 245 243 242 241 241 242 241 240 240 241 241 241 240 238 237 238 239 237 236 237 244 252 256 256 253 250 249 249 248 248 247 244 241 238 237 237 239 241 243 244 245 246 247 248 247 246 245 245 245 246 247 248 249 249 248 248 248 248 248 247 248 249 250 251 252 252 251 251 252 253 253 253 254
255 255 254 254 255 255 253 254 253 252 250 249 247 247 246 244 242 241 241 242 242 241 241 241 241 241 241 241 239 238 237 236 234 231 232 238 248 254 253 250 248 247 247 248 249 248 245 241 239 238 239 240 240 241 243 244 245 246 245 245 246 246 246 246 246 246 248 249 249 249 249 249 248 248 247 248 248 249 250 251 251 252 252 252 253 253 254
255 257 257 257 257 257 256 256 256 256 256 255 254 252 251 248 246 244 242 241 241 241 241 242 242 241 241 241 241 241 241 242 243 241 237 234 237 243 245 244 245 246 245 244 244 244 243 242 241 240 241 241 239 239 241 242 243 244 245 246 247 248 248 247 245 244 245 246 248 249 250 250 250 249 249 249 248 248 249 250 251 252 253 254 254 254 254
258 258 258 258 259 259 258 258 259 259 259 259 259 258 256 255 253 251 248 246 244 242 241 242 243 243 242 242 242 242 243 244 245 247 245 241 241 242 240 237 240 243 244 244 243 242 242 242 243 243 244 244 244 242 242 242 243 244 245 247 248 249 249 248 246 245 244 246 247 249 251 252 252 251 250 249 249 249 249 250 251 252 254 255 257 258 257
260 260 260 260 260 261 261 259 259 260 260 260 260 260 259 258 257 256 254 253 251 249 246 245 245 246 246 245 244 244 245 244 244 245 247 247 247 247 245 240 239 239 240 242 243 242 242 243 244 245 246 247 246 245 243 242 243 244 245 246 247 248 248 248 248 247 247 247 248 249 249 250 251 251 250 250 249 249 249 251 252 254 255 257 258 259 260
261 262 262 263 263 264 264 263 262 261 261 261 261 261 260 260 259 258 257 256 254 253 252 251 251 251 251 251 250 248 247 247 247 248 249 249 249 247 245 243 240 239 239 240 240 240 239 240 241 243 244 245 245 244 243 243 243 245 245 245 245 246 247 247 248 248 248 249 249 249 249 249 249 249 248 248 248 248 248 250 252 254 257 259 260 262 262
264 264 265 265 265 266 266 266 265 264 264 263 263 262 262 261 260 260 258 257 256 255 254 253 253 254 254 254 253 252 251 250 251 252 253 252 251 250 249 247 245 244 245 246 245 243 240 239 239 240 242 243 244 245 246 246 246 247 247 246 245 245 245 246 247 247 248 249 250 250 251 252 252 251 250 249 248 247 248 249 252 255 259 262 263 264 264
266 266 265 265 265 265 265 266 266 266 265 264 264 263 262 262 262 261 261 260 258 257 256 255 254 255 255 255 255 255 254 253 252 253 254 255 255 254 254 254 253 253 253 254 254 253 251 249 248 247 247 248 248 248 249 250 249 249 248 248 248 248 247 247 248 248 249 250 250 251 252 253 255 256 256 255 254 252 251 252 255 258 261 263 264 264 263
269 269 269 269 270 270 270 269 269 268 268 266 265 264 263 262 261 261 260 260 260 259 258 256 255 255 255 255 255 256 256 256 255 254 255 256 256 257 257 257 258 258 259 259 259 259 258 257 255 254 254 253 251 249 249 250 250 250 250 250 250 251 251 250 250 250 251 252 252 253 253 254 255 256 257 258 258 258 257 256 258 260 261 262 261 261 260
274 274 274 275 275 276 276 275 274 272 271 270 269 268 266 264 263 262 260 259 259 259 258 258 257 255 255 255 255 255 256 256 257 257 256 256 256 257 257 257 258 259 260 261 260 260 260 259 258 257 256 254 251 248 248 247 248 249 250 251 252 253 254 254 255 254 254 254 255 255 255 256 256 257 257 258 259 260 260 260 260 260 261 260 259 258 257
280 280 280 279 279 278 278 277 276 275 274 273 271 270 269 267 266 264 262 260 258 257 256 256 256 256 256 255 255 254 254 255 255 256 257 257 257 257 257 257 258 259 259 259 259 258 259 259 259 258 257 255 252 250 249 248 247 247 248 250 253 255 257 258 258 258 258 258 258 258 257 257 258 258 258 259 259 260 261 261 261 260 260 260 260 259 257
284 283 283 282 281 280 279 279 278 277 276 276 275 273 272 270 269 267 265 263 261 259 257 255 254 254 254 254 254 254 254 254 254 254 254 255 256 257 257 257 258 258 258 258 258 258 257 257 257 257 256 255 253 251 250 250 249 248 248 249 250 253 255 257 259 259 260 260 259 259 259 259 259 259 259 259 259 260 260 260 260 260 260 260 260 260 259
286 285 284 283 282 281 281 280 279 278 277 276 275 274 273 272 271 270 268 266 264 262 260 259 257 255 253 253 253 253 253 253 252 253 253 253 253 254 254 254 255 256 257 258 259 258 256 255 254 254 254 254 253 253 252 251 251 251 250 250 250 251 253 255 256 258 259 259 259 259 259 259 259 260 260 260 260 260 260 260 261 261 261 261 261 261 260
288 286 286 285 283 282 281 279 278 277 276 275 274 273 272 272 271 271 270 268 267 265 263 261 259 258 257 255 254 253 253 252 252 252 252 252 252 252 252 252 252 253 253 254 255 256 256 255 254 254 253 253 253 252 252 252 252 252 251 251 251 251 252 253 254 255 256 257 258 259 259 259 259 259 260 260 260 261 261 261 262 262 262 262 262 262 262
290 288 287 286 285 283 282 281 281 280 279 279 277 276 274 273 271 270 269 269 268 267 266 264 262 260 259 258 257 256 255 254 254 253 252 252 252 252 252 252 252 251 251 251 252 252 254 256 256 255 255 254 253 252 251 251 251 251 252 252 251 251 252 252 253 253 254 255 256 257 258 258 259 259 259 260 260 261 261 262 262 262 263 263 263 263 263
292 291 289 288 287 287 287 288 289 289 289 288 286 284 281 278 275 272 271 269 268 268 267 266 264 262 261 259 258 258 257 256 256 255 255 254 253 252 252 252 251 251 251 251 251 252 253 254 254 254 254 254 254 253 253 252 252 252 252 252 252 252 252 252 252 252 253 253 253 254 255 256 257 258 258 259 260 260 261 261 262 262 263 263 264 264 264
294 294 294 292 292 292 294 295 296 297 297 295 293 290 287 284 280 276 274 272 271 269 268 266 265 264 262 261 260 259 258 257 257 257 256 256 255 255 254 253 252 251 251 250 250 251 252 252 252 251 252 252 253 253 254 255 255 255 255 255 255 254 253 253 252 252 252 252 252 253 253 255 255 256 257 257 258 259 259 260 261 262 262 263 264 265 265
298 298 298 298 297 297 298 299 299 299 298 296 294 292 289 286 283 279 276 274 272 271 269 268 266 264 263 262 261 260 259 259 258 257 257 256 256 256 255 255 254 254 253 252 251 251 251 251 251 251 251 251 252 253 254 256 256 256 256 256 256 256 255 255 254 254 253 253 253 253 253 253 254 255 255 255 256 257 257 258 259 260 262 263 264 265 266
301 302 301 299 299 299 299 300 300 299 298 296 294 291 288 286 283 281 279 276 273 271 270 268 267 266 264 263 262 261 260 259 259 258 258 257 256 256 255 255 255 254 254 254 253 252 252 252 252 252 252 252 252 252 253 254 255 255 256 256 256 257 257 257 257 256 255 255 254 254 254 253 253 254 254 255 255 255 256 257 258 259 260 262 263 264 265
303 303 302 300 299 300 300 301 300 300 299 297 295 293 290 288 285 283 280 278 275 273 271 269 268 266 265 264 263 262 261 260 259 259 258 258 257 256 256 255 255 254 254 254 254 254 253 253 253 253 252 252 252 251 251 252 253 254 255 256 257 258 258 258 258 258 258 258 257 257 256 256 255 255 255 255 255 255 256 257 258 259 260 261 262 263 265
304 303 301 300 300 300 301 301 301 300 300 299 297 295 293 290 288 285 283 280 278 275 273 270 268 266 265 264 264 264 263 263 262 261 261 260 259 258 258 257 256 255 254 254 254 253 253 253 253 253 252 252 251 251 251 252 253 254 255 256 257 258 258 259 259 259 260 260 259 259 259 259 259 259 258 258 257 257 257 258 258 259 260 261 262 263 264
304 303 302 301 300 301 302 302 302 301 301 300 298 297 294 292 290 287 285 282 279 276 273 270 267 265 264 264 264 264 264 264 264 264 263 262 261 260 259 259 258 257 256 255 254 254 253 252 252 252 251 251 251 251 251 251 253 254 254 255 256 257 257 258 259 260 260 260 261 261 261 261 261 261 261 261 261 261 260 260 261 261 261 262 262 263 264
304 304 303 302 302 303 303 303 303 302 302 302 301 299 297 294 292 289 286 283 278 274 271 269 268 267 267 267 267 267 267 266 265 264 263 262 261 260 260 259 258 258 258 257 255 254 253 253 252 252 252 251 251 251 252 252 252 253 254 255 255 256 256 257 258 258 259 260 261 261 262 262 262 262 262 263 263 263 263 263 263 263 264 264 264 265 265
306 306 305 304 304 304 305 305 305 305 305 305 305 303 301 297 294 290 286 281 276 273 272 272 273 274 274 273 272 271 269 267 265 263 262 261 261 261 260 259 258 257 256 256 256 255 255 255 254 253 253 253 253 252 253 253 253 253 254 254 254 255 256 256 257 258 258 259 259 260 261 261 262 262 262 263 263 263 263 264 264 264 264 264 265 265 265
308 308 307 306 306 306 307 307 307 308 309 309 308 306 302 298 294 290 284 279 276 276 277 280 281 281 280 278 275 273 270 267 265 263 262 261 260 259 258 258 258 257 254 253 252 253 255 256 254 253 253 253 254 253 253 253 253 253 253 254 254 254 255 256 256 257 257 258 258 259 260 260 261 261 262 262 262 263 263 263 263 263 264 264 264 264 264
310 310 308 307 307 308 308 309 310 312 312 312 310 307 303 298 293 288 283 279 279 281 285 288 290 288 285 281 277 272 268 266 264 262 260 258 257 256 255 253 252 251 250 249 246 245 247 249 249 250 252 254 255 254 254 253 252 252 252 252 252 253 254 254 255 256 256 257 257 258 258 259 259 260 260 261 261 262 262 262 262 263 263 263 263 263 264
311 310 309 309 309 310 311 312 314 315 315 314 312 308 303 297 292 286 282 282 284 286 292 298 300 296 292 287 280 271 265 262 260 258 257 255 253 252 250 248 246 245 245 246 245 244 243 243 242 241 243 247 250 250 251 250 249 249 249 250 250 251 252 253 254 254 255 256 256 257 257 258 258 259 259 260 260 261 261 261 262 262 263 263 263 264 263
312 312 311 311 311 312 314 315 317 318 317 316 313 308 302 296 290 285 283 285 285 285 293 305 309 307 303 300 291 274 259 253 252 255 256 254 249 244 243 244 244 243 241 242 243 244 244 242 238 234 233 237 240 242 244 246 246 246 248 249 250 251 252 253 254 255 256 256 257 257 258 258 259 259 259 260 260 260 261 261 261 261 262 263 263 263 263
313 313 312 312 313 314 316 318 319 320 319 318 314 309 302 294 288 285 287 289 285 282 293 308 315 313 309 309 305 282 253 243 248 256 260 255 245 238 237 240 241 239 237 239 241 243 242 241 238 236 237 241 244 244 243 244 245 247 247 248 248 250 251 252 253 254 255 256 257 258 258 259 259 259 259 259 260 260 260 260 260 261 261 262 262 262 263
314 314 313 314 315 316 319 321 322 322 322 320 315 309 301 293 286 286 290 290 287 287 297 311 317 315 308 305 302 287 258 249 254 260 262 257 249 243 239 237 236 235 235 236 239 240 241 242 242 242 243 246 248 249 248 249 250 251 250 250 250 250 251 252 254 255 256 257 258 259 259 259 259 259 260 260 260 260 260 260 260 260 260 261 261 261 260
315 314 314 315 316 319 321 323 324 324 324 321 317 310 303 292 284 284 288 289 290 296 305 312 315 313 304 291 281 272 264 261 263 264 261 255 251 248 243 238 234 234 235 237 239 240 241 242 243 244 245 247 248 249 249 249 249 249 249 251 252 252 253 253 254 256 257 259 260 260 261 261 261 260 260 260 260 260 260 260 259 259 259 258 258 258 258
315 315 315 316 318 320 323 325 326 327 326 323 318 313 306 296 286 283 285 288 295 306 314 317 315 310 299 283 274 270 267 267 270 269 261 250 243 242 240 237 235 236 238 240 241 243 245 246 246 246 246 247 248 248 247 247 246 246 246 248 249 250 251 252 254 256 257 258 259 260 260 260 261 261 260 260 260 260 260 260 259 259 259 259 259 259 260
315 316 316 317 319 323 326 327 329 329 328 325 321 316 310 300 290 284 284 288 297 308 315 319 320 316 307 295 288 284 280 278 276 270 258 248 242 239 236 235 236 238 241 243 245 249 253 253 249 245 243 244 245 245 244 243 242 241 241 241 243 245 249 252 254 256 257 258 259 259 259 259 259 260 260 260 260 260 260 260 260 260 260 261 261 261 262
Height
5826 5828 5830 5832 5834 5837 5840 5843 5846 5848 5850 5853 5854 5856 5859 5861 5864 5867 5870 5872 5874 5876 5878 5881 5884 5887 5889 5891 5892 5895 5897 5899 5900 5902 5903 5905 5907 5908 5910 5911 5911 5912 5914 5915 5916 5917 5918 5918 5919 5919 5920 5920 5921 5922 5923 5924 5926 5927 5928 5929 5930 5931 5933 5933 5934 5935 5935 5936 5937 5938 5939 5941 5942 5944 5944 5945 5946 5946 5948 5949 5950 5951 5952 5953 5954 5955 5956
5824 5826 5828 5830 5832 5835 5837 5840 5842 5844 5847 5849 5851 5853 5855 5858 5860 5864 5866 5867 5869 5872 5874 5877 5880 5883 5886 5888 5889 5892 5893 5895 5897 5898 5900 5902 5904 5905 5907 5908 5908 5909 5910 5912 5913 5914 5914 5915 5916 5916 5917 5917 5918 5920 5921 5921 5922 5923 5925 5926 5927 5928 5929 5930 5931 5932 5933 5934 5934 5935 5936 5937 5939 5940 5941 5942 5942 5943 5944 5945 5946 5948 5949 5950 5951 5952 5953
5822 5824 5826 5828 5830 5832 5834 5837 5839 5841 5843 5845 5847 5850 5852 5854 5857 5859 5862 5864 5865 5868 5870 5873 5876 5880 5882 5884 5886 5888 5890 5892 5893 5895 5897 5898 5900 5901 5903 5904 5905 5905 5907 5908 5909 5910 5911 5911 5913 5914 5914 5915 5916 5917 5918 5918 5918 5919 5920 5921 5923 5924 5925 5926 5927 5928 5929 5930 5931 5932 5933 5933 5935 5936 5938 5939 5940 5940 5941 5941 5942 5944 5945 5946 5947 5948 5949
5820 5821 5824 5826 5828 5830 5832 5834 5835 5837 5839 5842 5844 5847 5849 5851 5853 5856 5859 5860 5861 5864 5866 5869 5872 5875 5878 5881 5882 5884 5886 5888 5889 5891 5893 5894 5896 5897 5899 5900 5901 5902 5903 5904 5905 5906 5907 5908 5909 5910 5911 5912 5913 5914 5914 5914 5914 5915 5916 5918 5919 5920 5921 5922 5923 5924 5925 5926 5927 5928 5929 5930 5931 5932 5933 5935 5936 5937 5938 5938 5938 5940 5941 5942 5943 5944 5945
5817 5819 5820 5822 5825 5828 5829 5830 5832 5835 5837 5839 5841 5843 5846 5848 5850 5853 5854 5854 5857 5861 5863 5865 5868 5871 5874 5876 5878 5880 5882 5884 5885 5887 5889 5891 5892 5893 5894 5895 5897 5898 5899 5900 5901 5902 5903 5904 5904 5905 5907 5909 5909 5910 5910 5910 5911 5912 5913 5915 5916 5916 5917 5918 5919 5920 5921 5922 5923 5924 5925 5926 5927 5928 5929 5931 5932 5933 5934 5934 5935 5936 5937 5938 5939 5940 5941
5814 5816 5817 5820 5822 5824 5824 5825 5829 5832 5834 5837 5839 5841 5843 5845 5847 5849 5851 5851 5854 5858 5860 5862 5865 5867 5869 5871 5874 5876 5878 5879 5881 5883 5885 5886 5887 5889 5890 5891 5893 5893 5894 5895 5897 5898 5899 5900 5900 5901 5903 5904 5905 5905 5906 5907 5908 5910 5911 5912 5913 5913 5913 5914 5915 5916 5917 5918 5919 5920 5921 5922 5923 5924 5925 5926 5927 5928 5929 5930 5931 5932 5933 5934 5935 5937 5937
5812 5813 5815 5817 5819 5820 5822 5824 5827 5829 5832 5834 5836 5838 5840 5842 5844 5846 5848 5849 5852 5854 5856 5859 5861 5862 5864 5867 5869 5871 5873 5874 5876 5878 5880 5882 5883 5884 5886 5887 5888 5889 5890 5891 5892 5893 5895 5896 5897 5898 5898 5899 5900 5901 5902 5903 5904 5906 5907 5908 5909 5910 5910 5910 5911 5913 5914 5915 5915 5916 5917 5918 5919 5920 5921 5922 5922 5923 5924 5926 5927 5927 5928 5929 5931 5933 5933
5810 5812 5813 5815 5816 5817 5820 5822 5823 5826 5829 5831 5833 5835 5837 5839 5841 5843 5845 5847 5849 5851 5853 5855 5857 5859 5861 5863 5865 5866 5868 5870 5871 5874 5875 5877 5878 5879 5881 5882 5883 5884 5885 5886 5887 5889 5890 5891 5893 5894 5894 5895 5896 5897 5898 5898 5899 5901 5902 5904 5905 5906 5907 5907 5908 5909 5910 5912 5912 5913 5914 5915 5916 5917 5917 5917 5918 5919 5920 5920 5921 5923 5924 5925 5926 5928 5929
5808 5809 5810 5812 5813 5815 5817 5819 5820 5823 5825 5828 5830 5832 5834 5835 5837 5840 5841 5844 5846 5848 5849 5851 5854 5855 5857 5859 5860 5862 5864 5865 5867 5869 5870 5872 5873 5874 5876 5877 5877 5878 5880 5881 5883 5885 5886 5887 5888 5889 5891 5892 5893 5893 5894 5895 5895 5896 5898 5900 5901 5902 5903 5904 5905 5905 5907 5908 5909 5910 5911 5911 5912 5912 5913 5913 5914 5915 5915 5916 5916 5917 5918 5919 5921 5923 5924
5806 5807 5807 5809 5810 5812 5814 5816 5817 5819 5822 5824 5827 5829 5830 5832 5834 5836 5838 5840 5842 5844 5846 5848 5850 5852 5853 5854 5856 5858 5859 5861 5863 5864 5865 5866 5867 5869 5870 5871 5872 5873 5875 5876 5878 5880 5882 5883 5884 5885 5887 5888 5889 5890 5891 5891 5892 5893 5895 5896 5898 5898 5900 5901 5902 5903 5904 5905 5906 5906 5907 5908 5908 5908 5909 5909 5910 5911 5911 5912 5912 5912 5912 5914 5916 5918 5920
5803 5804 5805 5806 5807 5808 5810 5812 5814 5816 5819 5821 5823 5825 5826 5828 5831 5832 5834 5836 5837 5840 5842 5844 5846 5848 5848 5849 5851 5853 5855 5856 5858 5859 5860 5860 5861 5863 5865 5866 5867 5868 5870 5871 5873 5875 5877 5879 5879 5881 5882 5884 5885 5886 5887 5888 5888 5889 5891 5892 5894 5895 5896 5898 5899 5899 5901 5902 5902 5903 5904 5904 5903 5904 5905 5905 5907 5907 5907 5907 5907 5907 5907 5909 5910 5912 5916
5801 5802 5803 5803 5803 5804 5807 5808 5810 5813 5815 5818 5820 5821 5821 5824 5828 5829 5830 5832 5834 5836 5838 5840 5842 5843 5843 5843 5846 5848 5850 5851 5852 5852 5852 5854 5855 5857 5858 5860 5862 5864 5865 5867 5868 5870 5872 5874 5875 5876 5878 5879 5881 5882 5883 5884 5885 5886 5887 5888 5889 5891 5892 5894 5895 5896 5897 5898 5899 5899 5900 5900 5899 5900 5901 5902 5904 5904 5904 5903 5903 5902 5902 5903 5903 5906 5909
5799 5800 5800 5800 5800 5802 5804 5805 5807 5809 5811 5814 5816 5816 5817 5820 5824 5824 5826 5828 5829 5831 5834 5835 5837 5839 5840 5841 5842 5844 5844 5846 5846 5844 5843 5845 5847 5850 5852 5854 5856 5858 5860 5861 5863 5865 5867 5869 5870 5872 5873 5875 5877 5878 5879 5880 5881 5882 5883 5884 5885 5887 5888 5890 5891 5892 5893 5894 5895 5896 5897 5897 5897 5897 5898 5898 5899 5900 5900 5900 5900 5899 5899 5899 5898 5900 5903
5797 5798 5798 5797 5798 5799 5801 5802 5804 5805 5807 5809 5811 5812 5814 5816 5818 5820 5822 5824 5825 5827 5829 5830 5831 5834 5836 5838 5839 5839 5839 5840 5841 5840 5839 5838 5840 5842 5844 5846 5848 5851 5853 5856 5858 5860 5862 5863 5865 5867 5868 5870 5872 5873 5875 5876 5878 5878 5879 5881 5882 5883 5884 5886 5887 5888 5889 5890 5890 5891 5892 5893 5894 5893 5894 5894 5895 5895 5896 5897 5898 5897 5897 5896 5896 5897 5899
5795 5796 5796 5795 5796 5797 5798 5799 5800 5801 5803 5805 5807 5809 5810 5811 5813 5815 5817 5819 5821 5823 5825 5826 5827 5828 5831 5833 5834 5834 5834 5835 5836 5837 5836 5835 5834 5835 5837 5839 5842 5845 5847 5850 5852 5854 5856 5858 5860 5861 5863 5865 5867 5868 5870 5872 5873 5874 5876 5877 5878 5879 5880 5881 5883 5884 5885 5885 5886 5887 5888 5889 5890 5889 5890 5891 5891 5892 5893 5895 5895 5895 5895 5895 5895 5896 5897
5793 5794 5793 5793 5794 5795 5796 5797 5797 5798 5799 5801 5803 5804 5806 5807 5809 5811 5813 5815 5817 5819 5821 5822 5822 5823 5825 5827 5828 5829 5830 5830 5830 5830 5831 5831 5831 5831 5832 5834 5836 5839 5842 5844 5846 5848 5850 5852 5854 5856 5858 5860 5861 5863 5864 5866 5868 5869 5871 5873 5874 5875 5876 5877 5878 5879 5880 5881 5882 5883 5884 5885 5885 5886 5886 5887 5888 5888 5889 5890 5892 5893 5893 5893 5894 5895 5895
5791 5791 5791 5792 5792 5793 5794 5795 5795 5796 5797 5797 5799 5800 5802 5804 5805 5806 5808 5810 5812 5814 5817 5818 5818 5819 5821 5822 5823 5825 5825 5825 5825 5825 5826 5827 5828 5828 5829 5830 5832 5834 5837 5839 5841 5843 5845 5847 5848 5850 5852 5854 5856 5857 5859 5861 5862 5864 5866 5867 5869 5870 5872 5873 5874 5875 5876 5877 5878 5879 5880 5881 5882 5882 5883 5884 5885 5886 5886 5887 5888 5889 5890 5891 5891 5892 5893
5789 5789 5789 5790 5790 5791 5792 5793 5793 5794 5794 5795 5796 5797 5798 5800 5801 5802 5804 5805 5807 5809 5811 5813 5814 5815 5816 5817 5819 5820 5821 5821 5821 5821 5821 5822 5823 5824 5825 5826 5828 5830 5832 5834 5835 5837 5839 5840 5842 5844 5846 5848 5850 5852 5854 5855 5857 5859 5860 5862 5863 5865 5866 5868 5869 5871 5872 5873 5874 5875 5876 5877 5878 5878 5879 5880 5881 5882 5883 5884 5884 5885 5886 5886 5887 5888 5889
5787 5787 5787 5788 5788 5789 5790 5791 5791 5792 5792 5793 5793 5794 5795 5796 5797 5798 5799 5801 5802 5804 5805 5807 5808 5809 5810 5812 5813 5814 5815 5815 5816 5816 5816 5816 5817 5818 5819 5821 5823 5825 5827 5828 5829 5831 5832 5834 5836 5838 5840 5842 5844 5846 5848 5850 5852 5854 5855 5857 5858 5860 5861 5863 5864 5866 5867 5869 5870 5871 5872 5873 5874 5874 5875 5876 5877 5878 5879 5880 5881 5881 5882 5882 5883 5884 5885
5784 5784 5785 5785 5786 5786 5787 5788 5788 5789 5789 5790 5791 5791 5792 5793 5794 5795 5796 5797 5798 5799 5800 5802 5803 5804 5804 5805 5807 5808 5808 5808 5809 5811 5811 5810 5811 5812 5813 5815 5818 5820 5821 5822 5824 5825 5827 5828 5830 5832 5835 5836 5838 5840 5842 5844 5846 5848 5850 5851 5853 5854 5856 5857 5859 5860 5862 5863 5865 5866 5868 5869 5869 5870 5871 5872 5872 5873 5874 5875 5876 5877 5878 5878 5879 5880 5881
5781 5781 5782 5782 5783 5783 5784 5785 5785 5786 5786 5787 5788 5788 5789 5790 5791 5791 5792 5793 5794 5795 5796 5797 5798 5798 5799 5799 5800 5801 5802 5802 5803 5805 5806 5806 5807 5808 5808 5809 5811 5813 5814 5816 5817 5820 5822 5823 5825 5827 5829 5831 5832 5834 5836 5838 5840 5842 5844 5845 5847 5849 5850 5852 5853 5855 5856 5858 5859 5861 5862 5864 5865 5866 5867 5867 5868 5869 5870 5870 5871 5872 5873 5874 5875 5876 5877
5779 5779 5779 5779 5780 5780 5781 5781 5782 5782 5783 5783 5784 5785 5785 5786 5787 5788 5788 5789 5790 5791 5791 5792 5792 5792 5793 5793 5794 5796 5797 5797 5798 5799 5800 5802 5804 5805 5805 5804 5805 5806 5808 5809 5811 5813 5815 5817 5819 5821 5823 5825 5827 5828 5830 5832 5834 5836 5837 5839 5840 5842 5844 5846 5847 5848 5850 5852 5853 5855 5857 5858 5859 5861 5862 5862 5863 5864 5865 5866 5867 5868 5869 5870 5871 5872 5873
5776 5776 5776 5777 5776 5777 5778 5778 5778 5779 5779 5779 5780 5781 5781 5782 5783 5784 5784 5785 5785 5786 5786 5787 5786 5787 5787 5788 5789 5790 5791 5792 5793 5793 5794 5796 5798 5799 5800 5801 5801 5802 5802 5804 5805 5807 5809 5811 5813 5815 5817 5818 5820 5822 5824 5826 5828 5829 5831 5832 5834 5835 5837 5839 5841 5842 5844 5845 5847 5849 5850 5852 5853 5855 5856 5857 5858 5859 5860 5862 5863 5864 5865 5866 5867 5867 5868
5773 5773 5773 5773 5773 5774 5774 5775 5775 5775 5775 5775 5776 5776 5777 5778 5779 5780 5780 5781 5781 5781 5781 5781 5781 5781 5782 5783 5784 5785 5786 5786 5787 5788 5789 5790 5792 5793 5795 5796 5796 5796 5797 5798 5800 5801 5803 5805 5807 5809 5811 5812 5814 5816 5818 5819 5821 5823 5825 5826 5827 5829 5831 5832 5834 5836 5838 5839 5841 5842 5844 5845 5847 5848 5850 5851 5852 5853 5855 5856 5857 5858 5860 5861 5862 5863 5864
5770 5770 5770 5770 5770 5770 5771 5771 5771 5771 5772 5772 5772 5772 5772 5773 5774 5774 5775 5776 5776 5776 5777 5776 5776 5775 5776 5777 5778 5779 5780 5781 5781 5782 5783 5784 5785 5787 5788 5788 5789 5791 5792 5793 5794 5795 5797 5798 5800 5802 5804 5806 5808 5810 5811 5813 5814 5816 5818 5820 5821 5822 5824 5826 5827 5829 5831 5833 5834 5835 5837 5838 5840 5841 5843 5844 5845 5847 5848 5849 5851 5852 5853 5854 5856 5857 5858
5767 5767 5767 5767 5767 5767 5767 5767 5767 5768 5768 5768 5768 5768 5768 5768 5768 5769 5769 5770 5771 5771 5771 5771 5771 5770 5770 5771 5772 5773 5774 5775 5776 5776 5776 5777 5779 5779 5779 5780 5782 5784 5786 5787 5788 5790 5791 5792 5794 5796 5798 5800 5802 5803 5805 5806 5808 5809 5811 5813 5814 5816 5817 5819 5820 5822 5824 5826 5827 5829 5830 5831 5833 5834 5836 5837 5838 5840 5841 5843 5844 5845 5846 5847 5849 5850 5851
5764 5764 5764 5764 5764 5764 5764 5763 5763 5763 5764 5763 5763 5763 5763 5763 5763 5764 5764 5764 5765 5765 5766 5766 5766 5765 5765 5765 5766 5767 5768 5769 5770 5770 5770 5771 5772 5772 5772 5774 5776 5778 5779 5780 5782 5783 5785 5786 5788 5790 5792 5794 5796 5797 5799 5800 5801 5803 5804 5806 5808 5809 5811 5812 5814 5815 5817 5818 5820 5821 5823 5824 5826 5827 5828 5830 5831 5833 5834 5835 5837 5838 5839 5841 5842 5843 5844
5760 5760 5760 5760 5759 5759 5759 5759 5759 5759 5759 5759 5759 5759 5758 5758 5758 5758 5758 5758 5759 5759 5759 5760 5760 5760 5760 5760 5760 5761 5761 5762 5763 5764 5764 5765 5765 5765 5767 5768 5769 5770 5771 5773 5774 5776 5777 5779 5781 5783 5785 5787 5789 5791 5792 5793 5795 5796 5798 5799 5801 5802 5803 5805 5807 5808 5809 5811 5812 5814 5815 5817 5818 5820 5821 5822 5824 5825 5827 5828 5829 5830 5831 5833 5834 5835 5836
5756 5756 5756 5756 5755 5755 5755 5755 5754 5754 5754 5754 5754 5753 5753 5753 5753 5753 5753 5753 5752 5752 5752 5753 5753 5753 5753 5753 5754 5755 5755 5755 5756 5757 5758 5758 5759 5760 5761 5762 5762 5763 5765 5766 5767 5768 5770 5771 5774 5776 5778 5781 5782 5784 5785 5786 5788 5790 5791 5792 5793 5795 5796 5797 5799 5801 5802 5803 5805 5806 5807 5809 5810 5811 5813 5814 5816 5817 5819 5820 5821 5822 5823 5824 5826 5827 5829
5753 5752 5752 5751 5751 5750 5750 5749 5749 5749 5748 5748 5748 5747 5747 5747 5746 5747 5747 5747 5746 5746 5746 5746 5746 5746 5746 5746 5747 5748 5748 5749 5749 5750 5750 5751 5752 5753 5754 5755 5756 5757 5758 5759 5760 5761 5762 5764 5767 5769 5771 5773 5775 5776 5777 5779 5780 5782 5784 5785 5786 5787 5788 5789 5791 5792 5794 5796 5797 5798 5799 5801 5802 5803 5805 5806 5808 5809 5810 5811 5813 5814 5814 5816 5817 5818 5820
5749 5748 5747 5747 5746 5746 5745 5744 5743 5743 5742 5742 5741 5741 5740 5740 5739 5739 5739 5739 5739 5739 5739 5739 5738 5738 5738 5739 5739 5740 5740 5741 5742 5742 5743 5744 5745 5746 5747 5748 5748 5749 5750 5751 5752 5754 5755 5757 5760 5761 5763 5765 5767 5768 5770 5771 5772 5775 5777 5778 5779 5780 5781 5782 5783 5784 5786 5787 5789 5790 5792 5793 5794 5795 5797 5798 5799 5800 5801 5802 5804 5805 5806 5807 5809 5810 5812
5744 5744 5743 5742 5741 5741 5740 5739 5738 5737 5736 5735 5734 5734 5733 5732 5731 5731 5730 5730 5730 5730 5730 5730 5730 5730 5730 5731 5731 5731 5732 5733 5734 5734 5735 5736 5737 5738 5739 5740 5740 5742 5742 5743 5744 5745 5747 5749 5751 5753 5755 5756 5758 5760 5761 5762 5764 5766 5769 5770 5772 5773 5774 5775 5776 5777 5778 5779 5780 5782 5783 5785 5786 5787 5789 5790 5791 5792 5793 5794 5795 5796 5797 5799 5800 5802 5804
5740 5739 5738 5737 5736 5735 5734 5733 5732 5731 5730 5729 5727 5727 5725 5725 5724 5723 5722 5721 5721 5721 5721 5721 5721 5722 5722 5722 5722 5722 5723 5724 5725 5725 5726 5727 5728 5729 5730 5731 5733 5734 5735 5735 5736 5737 5738 5741 5743 5745 5746 5748 5750 5751 5752 5754 5756 5758 5760 5761 5763 5765 5766 5767 5768 5769 5771 5771 5772 5774 5775 5776 5778 5779 5780 5781 5782 5784 5785 5786 5787 5788 5789 5790 5791 5793 5796
5735 5734 5733 5732 5731 5730 5728 5727 5726 5724 5723 5722 5721 5719 5718 5717 5716 5715 5714 5713 5712 5712 5711 5711 5712 5712 5712 5713 5713 5713 5714 5714 5715 5716 5717 5718 5719 5720 5721 5722 5724 5726 5727 5728 5729 5729 5730 5733 5735 5736 5737 5739 5741 5742 5744 5745 5747 5749 5751 5752 5754 5757 5758 5760 5761 5762 5763 5764 5765 5766 5767 5768 5770 5771 5772 5773 5774 5775 5777 5778 5778 5779 5781 5781 5782 5784 5786
5731 5729 5728 5727 5725 5724 5722 5721 5719 5718 5716 5715 5713 5712 5710 5709 5707 5706 5705 5704 5704 5703 5702 5702 5702 5702 5702 5703 5703 5704 5704 5705 5706 5706 5707 5709 5710 5711 5712 5713 5715 5716 5718 5719 5720 5720 5722 5725 5727 5727 5729 5731 5733 5734 5736 5737 5739 5741 5742 5744 5746 5748 5750 5752 5753 5754 5755 5756 5758 5759 5760 5761 5762 5763 5764 5765 5767 5768 5769 5769 5770 5771 5772 5773 5773 5775 5777
5725 5724 5723 5721 5719 5718 5716 5714 5713 5711 5709 5707 5705 5704 5702 5701 5699 5698 5697 5696 5695 5694 5694 5693 5693 5693 5693 5693 5693 5694 5694 5695 5696 5697 5698 5698 5700 5702 5703 5704 5705 5707 5708 5709 5711 5712 5714 5716 5718 5719 5721 5722 5724 5726 5729 5730 5731 5732 5734 5735 5737 5739 5741 5743 5745 5746 5747 5748 5750 5751 5752 5753 5754 5755 5756 5758 5759 5760 5761 5761 5762 5763 5764 5764 5765 5766 5768
5720 5719 5717 5715 5714 5712 5710 5708 5707 5705 5703 5701 5699 5697 5695 5692 5691 5689 5688 5687 5686 5686 5685 5685 5684 5684 5684 5684 5684 5684 5685 5685 5686 5686 5687 5688 5690 5691 5693 5694 5695 5697 5698 5700 5702 5704 5706 5708 5709 5711 5712 5714 5716 5719 5721 5721 5721 5723 5725 5726 5728 5730 5732 5734 5735 5737 5738 5740 5741 5743 5744 5745 5746 5747 5748 5750 5751 5752 5753 5754 5755 5755 5756 5756 5757 5758 5759
5715 5713 5712 5710 5708 5706 5704 5703 5701 5699 5697 5695 5693 5690 5688 5685 5683 5682 5681 5679 5678 5677 5677 5676 5676 5676 5676 5676 5676 5676 5676 5676 5676 5676 5677 5678 5679 5681 5682 5683 5685 5686 5688 5690 5693 5695 5697 5699 5701 5702 5704 5706 5709 5712 5713 5712 5712 5714 5716 5717 5719 5721 5723 5724 5725 5727 5729 5731 5732 5734 5735 5737 5737 5738 5740 5741 5743 5744 5745 5745 5746 5747 5748 5748 5749 5750 5750
5710 5708 5706 5704 5703 5701 5699 5697 5695 5693 5691 5688 5686 5684 5681 5679 5677 5675 5673 5672 5671 5669 5669 5668 5668 5668 5667 5667 5667 5667 5667 5667 5667 5668 5668 5669 5669 5670 5671 5673 5675 5676 5678 5680 5683 5685 5688 5690 5691 5692 5695 5697 5700 5703 5704 5704 5704 5706 5708 5709 5711 5712 5713 5714 5716 5717 5719 5721 5723 5724 5726 5727 5729 5730 5731 5733 5734 5735 5736 5737 5738 5739 5739 5740 5741 5741 5742
5705 5703 5701 5699 5697 5695 5693 5691 5689 5687 5684 5682 5679 5677 5674 5672 5670 5668 5666 5664 5663 5661 5661 5660 5660 5659 5659 5659 5659 5659 5659 5659 5659 5660 5660 5660 5660 5660 5662 5663 5665 5666 5668 5670 5673 5676 5679 5680 5681 5683 5686 5688 5690 5693 5695 5695 5696 5698 5699 5701 5702 5704 5705 5706 5707 5708 5710 5712 5713 5715 5716 5718 5719 5720 5722 5723 5724 5726 5727 5728 5729 5730 5730 5731 5732 5733 5733
5700 5698 5696 5694 5692 5690 5688 5686 5683 5681 5678 5675 5673 5670 5668 5665 5662 5660 5658 5656 5655 5654 5653 5653 5652 5652 5652 5652 5652 5652 5652 5652 5652 5652 5652 5652 5652 5652 5653 5655 5656 5657 5659 5661 5664 5667 5668 5670 5671 5674 5677 5679 5681 5684 5686 5686 5688 5689 5691 5693 5694 5695 5696 5698 5699 5700 5702 5703 5705 5706 5707 5709 5710 5711 5712 5713 5714 5716 5717 5718 5719 5720 5721 5722 5723 5723 5724
5695 5693 5690 5688 5686 5684 5682 5680 5677 5675 5672 5669 5666 5664 5661 5658 5655 5653 5651 5649 5648 5647 5647 5646 5646 5646 5646 5645 5645 5645 5645 5645 5644 5644 5644 5644 5644 5645 5646 5647 5648 5649 5650 5653 5656 5657 5659 5661 5663 5666 5668 5671 5673 5675 5676 5678 5679 5681 5683 5684 5685 5686 5688 5690 5691 5692 5694 5695 5696 5697 5699 5700 5701 5702 5703 5704 5705 5706 5707 5709 5710 5710 5711 5712 5713 5713 5714
5689 5687 5685 5683 5681 5679 5676 5674 5671 5669 5666 5662 5659 5656 5653 5650 5648 5646 5644 5643 5642 5641 5641 5640 5640 5639 5638 5637 5637 5636 5636 5636 5636 5635 5635 5636 5637 5637 5638 5639 5641 5642 5644 5646 5648 5649 5651 5653 5656 5658 5660 5662 5664 5666 5667 5669 5671 5673 5674 5675 5677 5678 5680 5682 5683 5684 5686 5687 5688 5689 5690 5691 5692 5693 5694 5695 5696 5697 5698 5699 5700 5701 5702 5703 5703 5704 5704
5684 5682 5680 5678 5675 5673 5671 5668 5665 5663 5659 5656 5652 5649 5646 5643 5641 5639 5638 5637 5637 5636 5636 5635 5634 5632 5631 5629 5628 5627 5626 5626 5626 5626 5626 5627 5628 5629 5630 5632 5635 5636 5637 5639 5642 5644 5645 5646 5648 5651 5652 5654 5656 5657 5659 5661 5663 5664 5666 5667 5668 5670 5672 5673 5675 5676 5678 5679 5680 5681 5682 5683 5684 5685 5686 5687 5688 5689 5690 5691 5692 5692 5693 5693 5694 5694 5695
5679 5677 5675 5672 5670 5668 5665 5662 5660 5657 5653 5650 5646 5643 5640 5637 5635 5634 5633 5632 5632 5631 5631 5629 5627 5625 5622 5620 5618 5616 5615 5615 5616 5616 5617 5618 5619 5620 5622 5626 5629 5629 5629 5632 5635 5637 5638 5639 5642 5644 5646 5647 5648 5649 5651 5653 5655 5656 5657 5659 5660 5662 5664 5665 5667 5668 5669 5670 5672 5673 5674 5675 5676 5677 5678 5679 5680 5681 5682 5682 5683 5684 5684 5685 5685 5686 5686
5674 5672 5669 5667 5665 5662 5660 5657 5654 5651 5647 5644 5640 5637 5634 5632 5630 5629 5628 5628 5627 5626 5625 5624 5621 5618 5614 5611 5608 5606 5605 5606 5608 5609 5610 5611 5613 5614 5616 5618 5620 5621 5623 5625 5627 5629 5631 5633 5635 5638 5639 5640 5641 5641 5643 5645 5646 5648 5649 5651 5653 5655 5656 5658 5659 5660 5662 5663 5664 5665 5666 5667 5668 5669 5670 5671 5672 5673 5673 5674 5675 5676 5676 5676 5677 5677 5678
5669 5667 5664 5662 5659 5657 5654 5652 5649 5645 5642 5638 5635 5631 5629 5627 5625 5625 5624 5624 5623 5622 5621 5619 5616 5612 5608 5605 5602 5600 5600 5602 5604 5605 5606 5607 5608 5610 5612 5613 5614 5616 5618 5620 5622 5623 5625 5627 5629 5631 5632 5633 5634 5635 5637 5638 5639 5641 5643 5645 5646 5648 5649 5651 5652 5653 5654 5655 5656 5657 5658 5659 5660 5661 5662 5663 5664 5665 5665 5666 5667 5668 5668 5669 5669 5669 5670
5664 5662 5659 5657 5655 5652 5649 5647 5644 5641 5637 5633 5630 5627 5624 5623 5622 5621 5621 5620 5619 5618 5617 5615 5612 5608 5605 5603 5601 5600 5600 5601 5603 5603 5604 5604 5605 5606 5607 5609 5610 5612 5614 5616 5617 5619 5620 5621 5623 5625 5626 5627 5628 5630 5632 5633 5634 5636 5638 5639 5640 5642 5643 5644 5646 5647 5648 5649 5649 5650 5651 5652 5653 5654 5655 5655 5656 5657 5658 5658 5659 5660 5660 5661 5661 5661 5662
5660 5657 5655 5653 5650 5648 5645 5642 5639 5636 5632 5629 5625 5623 5620 5619 5618 5618 5617 5617 5616 5615 5613 5612 5609 5606 5604 5602 5601 5601 5601 5602 5602 5602 5602 5602 5602 5603 5604 5605 5606 5608 5610 5612 5614 5615 5616 5617 5619 5620 5621 5622 5624 5625 5627 5628 5630 5631 5632 5634 5635 5636 5637 5639 5640 5641 5642 5642 5643 5644 5645 5645 5646 5647 5647 5648 5649 5650 5650 5651 5651 5652 5652 5653 5653 5654 5654
5656 5653 5651 5648 5646 5644 5641 5638 5635 5632 5628 5624 5621 5619 5617 5616 5615 5615 5614 5614 5613 5612 5610 5609 5607 5605 5603 5602 5601 5601 5601 5600 5600 5600 5600 5600 5600 5601 5602 5603 5604 5606 5607 5609 5610 5611 5613 5614 5615 5616 5617 5618 5619 5621 5622 5623 5625 5626 5628 5629 5630 5631 5632 5633 5634 5635 5636 5637 5638 5638 5639 5639 5640 5641 5641 5642 5643 5643 5644 5644 5645 5645 5645 5646 5646 5647 5647
5652 5649 5647 5645 5643 5640 5637 5635 5631 5628 5624 5621 5618 5616 5614 5613 5612 5612 5611 5610 5610 5609 5608 5606 5605 5603 5602 5601 5600 5599 5599 5599 5598 5598 5598 5598 5598 5599 5600 5601 5602 5604 5605 5606 5607 5608 5609 5610 5611 5612 5612 5614 5615 5616 5617 5618 5620 5621 5622 5624 5625 5626 5627 5628 5629 5630 5631 5631 5632 5633 5633 5634 5634 5635 5635 5636 5636 5637 5638 5638 5638 5639 5639 5639 5640 5640 5641
5648 5646 5644 5641 5639 5637 5634 5631 5628 5624 5620 5617 5615 5613 5611 5610 5609 5609 5608 5608 5607 5606 5606 5604 5603 5602 5601 5600 5599 5598 5597 5597 5596 5596 5596 5596 5597 5598 5598 5599 5600 5602 5603 5604 5605 5605 5606 5606 5606 5607 5608 5609 5610 5611 5612 5613 5615 5616 5617 5618 5620 5621 5622 5623 5624 5625 5625 5626 5627 5627 5628 5628 5629 5629 5630 5630 5631 5631 5632 5632 5633 5633 5633 5634 5634 5635 5635